| time (UTC) | temp F | wind direction | speed knots | gust knots | rain 1hr in | rain 24hr in | rain mn in | humidity % | barometer mb |
| 20260506180004 | 59 | 284 | 4.3 | 9.6 | 0.00 | 0.74 | 0.61 | 62 | 1011.2 |
| 20260506175402 | 58 | 298 | 1.7 | 8.7 | 0.00 | 0.74 | 0.61 | 67 | 1011.4 |
| 20260506175103 | 57 | 311 | 1.7 | 7.8 | 0.00 | 0.74 | 0.61 | 66 | 1011.4 |
| 20260506174803 | 57 | 294 | 2.6 | 7.8 | 0.00 | 0.74 | 0.61 | 66 | 1011.4 |
| 20260506174503 | 57 | 289 | 3.5 | 9.6 | 0.00 | 0.74 | 0.61 | 66 | 1011.3 |
| 20260506174203 | 57 | 289 | 3.5 | 9.6 | 0.00 | 0.74 | 0.61 | 68 | 1011.5 |
| 20260506173903 | 56 | 290 | 4.3 | 9.6 | 0.00 | 0.74 | 0.61 | 68 | 1011.4 |
| 20260506173603 | 56 | 283 | 5.2 | 11.3 | 0.00 | 0.74 | 0.61 | 68 | 1011.5 |
| 20260506173302 | 56 | 279 | 5.2 | 11.3 | 0.00 | 0.74 | 0.61 | 69 | 1011.5 |
| 20260506173002 | 57 | 283 | 6.1 | 11.3 | 0.00 | 0.74 | 0.61 | 69 | 1011.6 |
| 20260506172702 | 57 | 281 | 6.1 | 12.2 | 0.00 | 0.74 | 0.61 | 66 | 1011.7 |
| 20260506172403 | 57 | 283 | 6.1 | 12.2 | 0.00 | 0.74 | 0.61 | 68 | 1011.8 |
| 20260506171503 | 57 | 282 | 5.2 | 10.4 | 0.00 | 0.74 | 0.61 | 71 | 1011.5 |
| 20260506171202 | 57 | 283 | 6.1 | 10.4 | 0.00 | 0.74 | 0.61 | 72 | 1011.3 |
| 20260506170902 | 56 | 283 | 5.2 | 11.3 | 0.00 | 0.74 | 0.61 | 71 | 1011.3 |
| 20260506170603 | 56 | 283 | 5.2 | 11.3 | 0.00 | 0.74 | 0.61 | 72 | 1011.2 |
| 20260506170003 | 56 | 283 | 4.3 | 8.7 | 0.00 | 0.74 | 0.61 | 76 | 1011.4 |
| 20260506165702 | 56 | 281 | 5.2 | 8.7 | 0.00 | 0.74 | 0.61 | 75 | 1011.5 |
| 20260506165402 | 56 | 283 | 4.3 | 8.7 | 0.00 | 0.74 | 0.61 | 75 | 1011.5 |
| 20260506165103 | 56 | 287 | 4.3 | 8.7 | 0.00 | 0.74 | 0.61 | 75 | 1011.5 |
| 20260506164802 | 55 | 290 | 4.3 | 7.8 | 0.00 | 0.74 | 0.61 | 75 | 1011.5 |
| 20260506164502 | 55 | 291 | 5.2 | 8.7 | 0.00 | 0.74 | 0.61 | 76 | 1011.6 |
| 20260506164203 | 55 | 286 | 5.2 | 12.2 | 0.00 | 0.74 | 0.61 | 75 | 1011.6 |
| 20260506163902 | 55 | 286 | 6.1 | 12.2 | 0.00 | 0.74 | 0.61 | 76 | 1011.5 |
| 20260506163602 | 55 | 285 | 5.2 | 12.2 | 0.00 | 0.74 | 0.61 | 75 | 1011.6 |
| 20260506163303 | 55 | 286 | 3.5 | 9.6 | 0.00 | 0.74 | 0.61 | 77 | 1011.6 |
| 20260506163004 | 55 | 297 | 2.6 | 8.7 | 0.00 | 0.74 | 0.61 | 75 | 1011.5 |
| 20260506162703 | 54 | 307 | 2.6 | 6.1 | 0.00 | 0.74 | 0.61 | 74 | 1011.4 |
| 20260506162403 | 54 | 302 | 2.6 | 6.1 | 0.00 | 0.74 | 0.61 | 76 | 1011.4 |
| 20260506161803 | 54 | 288 | 2.6 | 7.0 | 0.00 | 0.74 | 0.61 | 77 | 1011.2 |
| 20260506160603 | 54 | 289 | 2.6 | 10.4 | 0.00 | 0.74 | 0.61 | 79 | 1011.2 |
| 20260506160303 | 54 | 295 | 2.6 | 7.8 | 0.00 | 0.74 | 0.61 | 80 | 1011.1 |
| 20260506160004 | 53 | 290 | 1.7 | 7.8 | 0.00 | 0.74 | 0.61 | 80 | 1011.0 |
| 20260506155703 | 53 | 304 | 1.7 | 5.2 | 0.00 | 0.74 | 0.61 | 79 | 1011.1 |
| 20260506155103 | 53 | 290 | 3.5 | 7.8 | 0.00 | 0.74 | 0.61 | 80 | 1011.0 |
| 20260506154803 | 53 | 288 | 3.5 | 7.8 | 0.00 | 0.74 | 0.61 | 82 | 1011.0 |
| 20260506154502 | 53 | 284 | 3.5 | 8.7 | 0.00 | 0.74 | 0.61 | 83 | 1011.0 |
| 20260506154202 | 52 | 288 | 3.5 | 8.7 | 0.01 | 0.74 | 0.61 | 82 | 1010.9 |
| 20260506153902 | 52 | 291 | 3.5 | 8.7 | 0.01 | 0.74 | 0.61 | 82 | 1011.0 |
| 20260506153603 | 52 | 295 | 3.5 | 7.0 | 0.01 | 0.74 | 0.61 | 82 | 1010.8 |
| 20260506153303 | 52 | 301 | 3.5 | 8.7 | 0.01 | 0.74 | 0.61 | 83 | 1010.7 |
| 20260506152703 | 52 | 312 | 2.6 | 8.7 | 0.01 | 0.74 | 0.61 | 85 | 1010.6 |
| 20260506152402 | 52 | 310 | 1.7 | 4.3 | 0.01 | 0.74 | 0.61 | 86 | 1010.7 |
| 20260506151803 | 51 | 296 | 2.6 | 8.7 | 0.01 | 0.74 | 0.61 | 86 | 1010.7 |
| 20260506151503 | 51 | 294 | 2.6 | 8.7 | 0.01 | 0.74 | 0.61 | 86 | 1010.7 |
| 20260506151203 | 51 | 294 | 3.5 | 8.7 | 0.01 | 0.74 | 0.61 | 87 | 1010.8 |
| 20260506150903 | 51 | 299 | 4.3 | 10.4 | 0.01 | 0.74 | 0.61 | 88 | 1010.8 |
| 20260506150603 | 50 | 298 | 4.3 | 10.4 | 0.01 | 0.74 | 0.61 | 88 | 1010.7 |
| 20260506150003 | 50 | 301 | 3.5 | 9.6 | 0.01 | 0.74 | 0.61 | 89 | 1010.7 |
| 20260506145403 | 50 | 301 | 4.3 | 11.3 | 0.01 | 0.74 | 0.61 | 89 | 1010.5 |
| 20260506145103 | 50 | 295 | 5.2 | 11.3 | 0.01 | 0.74 | 0.61 | 90 | 1010.5 |
| 20260506144502 | 50 | 289 | 5.2 | 11.3 | 0.01 | 0.74 | 0.61 | 90 | 1010.5 |
| 20260506144203 | 51 | 287 | 3.5 | 9.6 | 0.00 | 0.73 | 0.60 | 90 | 1010.4 |
| 20260506143303 | 51 | 306 | 2.6 | 9.6 | 0.00 | 0.73 | 0.60 | 91 | 1010.2 |
| 20260506142703 | 50 | 308 | 3.5 | 9.6 | 0.00 | 0.73 | 0.60 | 91 | 1010.2 |
| 20260506142403 | 50 | 302 | 2.6 | 8.7 | 0.00 | 0.73 | 0.60 | 91 | 1010.0 |
| 20260506142103 | 51 | 300 | 2.6 | 8.7 | 0.00 | 0.73 | 0.60 | 92 | 1009.9 |
| 20260506141804 | 50 | 305 | 1.7 | 8.7 | 0.00 | 0.73 | 0.60 | 92 | 1009.7 |
| 20260506141503 | 51 | 319 | 1.7 | 8.7 | 0.00 | 0.73 | 0.60 | 93 | 1009.7 |
| 20260506141203 | 50 | 312 | 1.7 | 7.0 | 0.00 | 0.73 | 0.60 | 92 | 1009.8 |
| 20260506140903 | 51 | 304 | 1.7 | 7.0 | 0.00 | 0.73 | 0.60 | 93 | 1009.8 |
| 20260506140603 | 50 | 294 | 1.7 | 6.1 | 0.00 | 0.73 | 0.60 | 93 | 1009.8 |
| 20260506140303 | 50 | 300 | 1.7 | 5.2 | 0.00 | 0.73 | 0.60 | 93 | 1009.7 |
| 20260506140003 | 50 | 297 | 0.9 | 5.2 | 0.00 | 0.73 | 0.60 | 93 | 1009.5 |
| 20260506135703 | 50 | 298 | 0.9 | 3.5 | 0.00 | 0.73 | 0.60 | 94 | 1009.3 |
| 20260506135404 | 50 | 279 | 0.9 | 4.3 | 0.00 | 0.73 | 0.60 | 94 | 1009.5 |
| 20260506135103 | 50 | 302 | 1.7 | 5.2 | 0.00 | 0.73 | 0.60 | 94 | 1009.6 |
| 20260506134803 | 50 | 310 | 1.7 | 7.0 | 0.00 | 0.73 | 0.60 | 94 | 1009.4 |
| 20260506134503 | 49 | 312 | 1.7 | 7.0 | 0.00 | 0.73 | 0.60 | 94 | 1009.4 |
| 20260506134203 | 49 | 300 | 1.7 | 7.0 | 0.00 | 0.73 | 0.60 | 95 | 1009.4 |
| 20260506133903 | 49 | 293 | 1.7 | 7.0 | 0.00 | 0.73 | 0.60 | 94 | 1009.4 |
| 20260506133603 | 49 | 293 | 1.7 | 7.0 | 0.00 | 0.73 | 0.60 | 95 | 1009.4 |
| 20260506133303 | 49 | 306 | 1.7 | 3.5 | 0.01 | 0.73 | 0.60 | 95 | 1009.4 |
| 20260506133003 | 49 | 294 | 1.7 | 6.1 | 0.01 | 0.73 | 0.60 | 95 | 1009.4 |
| 20260506132703 | 49 | 294 | 1.7 | 6.1 | 0.01 | 0.73 | 0.60 | 95 | 1009.3 |
| 20260506132403 | 49 | 279 | 1.7 | 6.1 | 0.01 | 0.73 | 0.60 | 95 | 1009.4 |
| 20260506132103 | 49 | 281 | 0.9 | 6.1 | 0.01 | 0.73 | 0.60 | 95 | 1009.3 |
| 20260506131803 | 48 | 290 | 1.7 | 6.1 | 0.01 | 0.73 | 0.60 | 95 | 1009.3 |
| 20260506131503 | 48 | 290 | 1.7 | 6.1 | 0.01 | 0.73 | 0.60 | 95 | 1009.3 |
| 20260506131203 | 49 | 287 | 1.7 | 6.1 | 0.01 | 0.73 | 0.60 | 95 | 1009.3 |
| 20260506130903 | 49 | 279 | 0.9 | 6.1 | 0.01 | 0.73 | 0.60 | 95 | 1009.2 |
| 20260506130603 | 48 | 270 | 0.9 | 2.6 | 0.01 | 0.73 | 0.60 | 95 | 1009.0 |
| 20260506130304 | 49 | 0 | 0.0 | 2.6 | 0.01 | 0.73 | 0.60 | 96 | 1009.0 |
| 20260506130004 | 48 | 311 | 0.9 | 2.6 | 0.01 | 0.73 | 0.60 | 95 | 1009.0 |
| 20260506125702 | 48 | 0 | 0.0 | 2.6 | 0.01 | 0.73 | 0.60 | 95 | 1009.1 |
| 20260506125403 | 48 | 0 | 0.0 | 2.6 | 0.02 | 0.73 | 0.60 | 95 | 1009.2 |
| 20260506125103 | 48 | 104 | 0.9 | 2.6 | 0.02 | 0.73 | 0.60 | 95 | 1009.2 |
| 20260506124803 | 48 | 84 | 0.9 | 2.6 | 0.02 | 0.73 | 0.60 | 95 | 1009.2 |
| 20260506124503 | 48 | 77 | 0.9 | 2.6 | 0.02 | 0.73 | 0.60 | 95 | 1009.2 |
| 20260506124203 | 48 | 0 | 0.0 | 2.6 | 0.02 | 0.73 | 0.60 | 95 | 1009.2 |
| 20260506123903 | 48 | 0 | 0.0 | 1.7 | 0.02 | 0.73 | 0.60 | 95 | 1009.2 |
| 20260506123603 | 47 | 0 | 0.0 | 1.7 | 0.02 | 0.73 | 0.60 | 95 | 1009.2 |
| 20260506123304 | 47 | 322 | 0.9 | 3.5 | 0.02 | 0.72 | 0.59 | 95 | 1009.3 |
| 20260506123004 | 47 | 296 | 1.7 | 3.5 | 0.02 | 0.72 | 0.59 | 95 | 1009.2 |
| 20260506122703 | 47 | 292 | 1.7 | 5.2 | 0.02 | 0.72 | 0.59 | 95 | 1009.2 |
| 20260506122104 | 47 | 291 | 0.9 | 5.2 | 0.02 | 0.72 | 0.59 | 95 | 1009.4 |
| 20260506121803 | 47 | 285 | 0.9 | 2.6 | 0.02 | 0.72 | 0.59 | 95 | 1009.2 |
| 20260506121203 | 47 | 259 | 0.9 | 2.6 | 0.02 | 0.72 | 0.59 | 95 | 1008.8 |
| 20260506120903 | 47 | 225 | 0.9 | 2.6 | 0.03 | 0.72 | 0.59 | 95 | 1008.8 |
| 20260506120604 | 47 | 76 | 0.9 | 1.7 | 0.03 | 0.72 | 0.59 | 95 | 1008.5 |
| 20260506120004 | 47 | 325 | 1.7 | 6.1 | 0.03 | 0.72 | 0.59 | 95 | 1008.0 |
| 20260506115704 | 47 | 290 | 1.7 | 6.1 | 0.04 | 0.72 | 0.59 | 95 | 1008.1 |
| 20260506115403 | 47 | 281 | 0.9 | 5.2 | 0.03 | 0.71 | 0.58 | 95 | 1008.4 |
| 20260506114804 | 47 | 301 | 0.9 | 2.6 | 0.03 | 0.71 | 0.58 | 95 | 1008.5 |
| 20260506114500 | 47 | 296 | 0.9 | 2.6 | 0.03 | 0.71 | 0.58 | 95 | 1008.5 |
| 20260506114159 | 47 | 0 | 0.0 | 2.6 | 0.04 | 0.71 | 0.58 | 95 | 1008.4 |
| 20260506113859 | 47 | 186 | 0.9 | 2.6 | 0.04 | 0.71 | 0.58 | 95 | 1008.1 |
| 20260506113559 | 47 | 202 | 0.9 | 2.6 | 0.03 | 0.70 | 0.57 | 94 | 1008.0 |
| 20260506113300 | 47 | 248 | 0.9 | 3.5 | 0.04 | 0.70 | 0.57 | 95 | 1008.0 |
| 20260506113000 | 47 | 274 | 0.9 | 5.2 | 0.04 | 0.70 | 0.57 | 95 | 1008.2 |
| 20260506112659 | 47 | 281 | 1.7 | 5.2 | 0.04 | 0.70 | 0.57 | 95 | 1008.3 |
| 20260506112400 | 47 | 285 | 2.6 | 7.8 | 0.04 | 0.70 | 0.57 | 95 | 1008.6 |
| 20260506111759 | 47 | 292 | 2.6 | 7.8 | 0.05 | 0.70 | 0.57 | 95 | 1008.5 |
| 20260506110859 | 47 | 300 | 1.7 | 4.3 | 0.05 | 0.69 | 0.56 | 94 | 1008.0 |
| 20260506110600 | 47 | 298 | 1.7 | 7.8 | 0.05 | 0.69 | 0.56 | 95 | 1008.1 |
| 20260506110300 | 47 | 289 | 1.7 | 7.8 | 0.06 | 0.69 | 0.56 | 95 | 1008.0 |
| 20260506110000 | 47 | 289 | 1.7 | 7.8 | 0.06 | 0.69 | 0.56 | 95 | 1007.9 |
| 20260506105700 | 47 | 289 | 0.9 | 7.8 | 0.06 | 0.68 | 0.55 | 95 | 1007.8 |
| 20260506105059 | 47 | 0 | 0.0 | 3.5 | 0.06 | 0.68 | 0.55 | 95 | 1007.3 |
| 20260506104500 | 47 | 0 | 0.0 | 2.6 | 0.07 | 0.68 | 0.55 | 94 | 1007.0 |
| 20260506104200 | 47 | 0 | 0.0 | 2.6 | 0.07 | 0.67 | 0.54 | 94 | 1006.8 |
| 20260506103600 | 47 | 0 | 0.0 | 1.7 | 0.07 | 0.67 | 0.54 | 94 | 1006.7 |
| 20260506103300 | 47 | 93 | 0.9 | 3.5 | 0.07 | 0.66 | 0.53 | 95 | 1006.8 |
| 20260506102700 | 47 | 323 | 0.9 | 8.7 | 0.08 | 0.66 | 0.53 | 95 | 1006.6 |
| 20260506102400 | 47 | 309 | 0.9 | 8.7 | 0.08 | 0.66 | 0.53 | 95 | 1007.0 |
| 20260506102100 | 47 | 285 | 0.9 | 3.5 | 0.07 | 0.65 | 0.52 | 95 | 1006.8 |
| 20260506101800 | 47 | 270 | 0.9 | 3.5 | 0.08 | 0.65 | 0.52 | 95 | 1006.9 |
| 20260506101500 | 47 | 280 | 1.7 | 7.0 | 0.08 | 0.65 | 0.52 | 95 | 1007.1 |
| 20260506101201 | 47 | 280 | 1.7 | 7.0 | 0.08 | 0.64 | 0.51 | 95 | 1007.2 |
| 20260506100900 | 47 | 285 | 0.9 | 7.0 | 0.08 | 0.64 | 0.51 | 95 | 1007.0 |
| 20260506100600 | 47 | 287 | 0.9 | 7.0 | 0.08 | 0.64 | 0.51 | 95 | 1007.0 |
| 20260506100300 | 47 | 276 | 1.7 | 3.5 | 0.08 | 0.63 | 0.50 | 95 | 1007.1 |
| 20260506095700 | 47 | 281 | 0.9 | 2.6 | 0.08 | 0.62 | 0.49 | 94 | 1006.9 |
| 20260506095400 | 47 | 281 | 1.7 | 5.2 | 0.08 | 0.62 | 0.49 | 94 | 1007.0 |
| 20260506095100 | 47 | 285 | 2.6 | 7.8 | 0.09 | 0.62 | 0.49 | 94 | 1007.2 |
| 20260506094800 | 48 | 285 | 2.6 | 7.8 | 0.08 | 0.61 | 0.48 | 94 | 1007.3 |
| 20260506094200 | 48 | 291 | 2.6 | 7.0 | 0.08 | 0.60 | 0.47 | 95 | 1007.5 |
| 20260506093901 | 48 | 288 | 2.6 | 7.0 | 0.08 | 0.60 | 0.47 | 94 | 1007.5 |
| 20260506093600 | 48 | 285 | 2.6 | 7.0 | 0.09 | 0.60 | 0.47 | 94 | 1007.4 |
| 20260506093300 | 48 | 290 | 2.6 | 7.0 | 0.08 | 0.59 | 0.46 | 94 | 1007.3 |
| 20260506093000 | 48 | 291 | 2.6 | 7.0 | 0.09 | 0.59 | 0.46 | 94 | 1007.3 |
| 20260506092700 | 48 | 293 | 3.5 | 7.0 | 0.08 | 0.58 | 0.45 | 95 | 1007.2 |
| 20260506092401 | 48 | 298 | 3.5 | 7.8 | 0.08 | 0.58 | 0.45 | 94 | 1007.1 |
| 20260506092100 | 49 | 297 | 4.3 | 10.4 | 0.09 | 0.58 | 0.45 | 94 | 1007.1 |
| 20260506091800 | 49 | 295 | 4.3 | 10.4 | 0.09 | 0.57 | 0.44 | 94 | 1007.1 |
| 20260506091500 | 49 | 295 | 4.3 | 10.4 | 0.09 | 0.57 | 0.44 | 94 | 1007.2 |
| 20260506091200 | 50 | 288 | 4.3 | 10.4 | 0.09 | 0.56 | 0.43 | 95 | 1007.2 |
| 20260506090900 | 50 | 289 | 3.5 | 10.4 | 0.09 | 0.56 | 0.43 | 94 | 1007.1 |
| 20260506090600 | 50 | 288 | 3.5 | 10.4 | 0.09 | 0.55 | 0.42 | 95 | 1007.1 |
| 20260506090300 | 50 | 285 | 2.6 | 7.0 | 0.09 | 0.55 | 0.42 | 95 | 1007.0 |
| 20260506090000 | 50 | 289 | 2.6 | 7.0 | 0.09 | 0.54 | 0.41 | 95 | 1007.0 |
| 20260506085100 | 51 | 289 | 0.9 | 6.1 | 0.09 | 0.53 | 0.40 | 95 | 1006.7 |
| 20260506084500 | 51 | 0 | 0.0 | 1.7 | 0.09 | 0.52 | 0.39 | 95 | 1006.6 |
| 20260506084200 | 51 | 0 | 0.0 | 1.7 | 0.10 | 0.52 | 0.39 | 95 | 1006.5 |
| 20260506083900 | 51 | 278 | 0.9 | 2.6 | 0.10 | 0.52 | 0.39 | 95 | 1006.5 |
| 20260506083600 | 51 | 286 | 0.9 | 2.6 | 0.10 | 0.51 | 0.38 | 95 | 1006.4 |
| 20260506083300 | 51 | 291 | 0.9 | 6.1 | 0.10 | 0.51 | 0.38 | 95 | 1006.4 |
| 20260506083001 | 51 | 295 | 0.9 | 6.1 | 0.09 | 0.50 | 0.37 | 95 | 1006.4 |
| 20260506082701 | 51 | 293 | 0.9 | 6.1 | 0.10 | 0.50 | 0.37 | 95 | 1006.4 |
| 20260506082400 | 51 | 278 | 0.9 | 2.6 | 0.09 | 0.49 | 0.36 | 95 | 1006.4 |
| 20260506082101 | 51 | 278 | 0.9 | 2.6 | 0.09 | 0.49 | 0.36 | 95 | 1006.3 |
| 20260506081801 | 51 | 273 | 0.9 | 2.6 | 0.09 | 0.48 | 0.35 | 95 | 1006.2 |
| 20260506081200 | 51 | 277 | 0.9 | 3.5 | 0.09 | 0.47 | 0.34 | 95 | 1006.4 |
| 20260506080900 | 51 | 291 | 0.9 | 3.5 | 0.09 | 0.47 | 0.34 | 95 | 1006.3 |
| 20260506080600 | 51 | 278 | 1.7 | 8.7 | 0.09 | 0.46 | 0.33 | 95 | 1006.2 |
| 20260506080301 | 52 | 280 | 2.6 | 8.7 | 0.09 | 0.46 | 0.33 | 95 | 1006.2 |
| 20260506073001 | 52 | 298 | 0.9 | 3.5 | 0.07 | 0.40 | 0.27 | 95 | 1005.9 |
| 20260506072400 | 52 | 300 | 0.9 | 4.3 | 0.08 | 0.40 | 0.27 | 95 | 1005.9 |
| 20260506071801 | 53 | 287 | 0.9 | 3.5 | 0.08 | 0.39 | 0.26 | 95 | 1005.6 |
| 20260506071500 | 53 | 286 | 1.7 | 5.2 | 0.07 | 0.38 | 0.25 | 95 | 1005.7 |
| 20260506071200 | 53 | 294 | 2.6 | 7.0 | 0.07 | 0.38 | 0.25 | 95 | 1005.8 |
| 20260506070900 | 53 | 289 | 1.7 | 7.0 | 0.07 | 0.38 | 0.25 | 95 | 1005.8 |
| 20260506070600 | 53 | 283 | 3.5 | 8.7 | 0.06 | 0.37 | 0.24 | 95 | 1006.0 |
| 20260506062101 | 55 | 277 | 2.6 | 7.8 | 0.11 | 0.31 | 0.18 | 94 | 1006.2 |
| 20260506061800 | 55 | 279 | 3.5 | 7.8 | 0.12 | 0.31 | 0.18 | 94 | 1006.3 |
| 20260506061501 | 56 | 285 | 2.6 | 7.8 | 0.13 | 0.31 | 0.18 | 93 | 1006.2 |
| 20260506061201 | 57 | 296 | 1.7 | 7.8 | 0.14 | 0.31 | 0.18 | 93 | 1006.2 |
| 20260506060901 | 58 | 307 | 0.9 | 7.0 | 0.15 | 0.31 | 0.18 | 94 | 1006.3 |
| 20260506060601 | 59 | 0 | 0.0 | 1.7 | 0.15 | 0.31 | 0.18 | 95 | 1006.3 |
| 20260506060300 | 59 | 0 | 0.0 | 1.7 | 0.16 | 0.31 | 0.18 | 95 | 1006.3 |
| 20260506050901 | 59 | 0 | 0.0 | 0.0 | 0.03 | 0.16 | 0.03 | 95 | 1007.1 |
| 20260506050600 | 59 | 0 | 0.0 | 1.7 | 0.03 | 0.16 | 0.03 | 95 | 1007.1 |
| 20260506050301 | 59 | 0 | 0.0 | 1.7 | 0.02 | 0.15 | 0.02 | 95 | 1007.2 |
| 20260506045101 | 59 | 0 | 0.0 | 2.6 | 0.02 | 0.15 | 0.02 | 95 | 1007.5 |
| 20260506044801 | 59 | 0 | 0.0 | 2.6 | 0.03 | 0.15 | 0.02 | 95 | 1007.5 |
| 20260506044501 | 59 | 171 | 0.9 | 2.6 | 0.03 | 0.15 | 0.02 | 95 | 1007.5 |
| 20260506044201 | 59 | 159 | 0.9 | 2.6 | 0.02 | 0.14 | 0.01 | 95 | 1007.5 |
| 20260506043901 | 59 | 176 | 0.9 | 2.6 | 0.02 | 0.14 | 0.01 | 95 | 1007.5 |
| 20260506043601 | 59 | 174 | 0.9 | 2.6 | 0.02 | 0.14 | 0.01 | 95 | 1007.6 |
| 20260506043301 | 59 | 191 | 0.9 | 2.6 | 0.02 | 0.14 | 0.01 | 95 | 1007.7 |
| 20260506043002 | 59 | 174 | 0.9 | 2.6 | 0.02 | 0.14 | 0.01 | 94 | 1007.5 |
| 20260506042701 | 59 | 170 | 0.9 | 2.6 | 0.02 | 0.14 | 0.01 | 94 | 1007.6 |
| 20260506042401 | 59 | 162 | 0.9 | 2.6 | 0.02 | 0.14 | 0.01 | 94 | 1007.6 |
| 20260506042100 | 59 | 163 | 0.9 | 2.6 | 0.03 | 0.14 | 0.01 | 94 | 1007.5 |
| 20260506041501 | 59 | 184 | 0.9 | 2.6 | 0.03 | 0.14 | 0.01 | 95 | 1007.7 |
| 20260506041201 | 59 | 202 | 0.9 | 2.6 | 0.03 | 0.14 | 0.01 | 95 | 1007.6 |
| 20260506040901 | 59 | 226 | 0.9 | 2.6 | 0.02 | 0.13 | 0.00 | 95 | 1007.7 |
| 20260506040601 | 59 | 249 | 0.9 | 1.7 | 0.02 | 0.13 | 0.00 | 95 | 1007.6 |
| 20260506040300 | 59 | 0 | 0.0 | 1.7 | 0.03 | 0.13 | 0.00 | 94 | 1007.7 |
| 20260506035701 | 59 | 0 | 0.0 | 0.9 | 0.03 | 0.13 | 0.13 | 94 | 1007.7 |
| 20260506035401 | 59 | 0 | 0.0 | 0.9 | 0.03 | 0.13 | 0.13 | 94 | 1007.7 |
| 20260506035101 | 59 | 0 | 0.0 | 0.9 | 0.03 | 0.13 | 0.13 | 94 | 1007.7 |
| 20260506034801 | 59 | 0 | 0.0 | 0.9 | 0.02 | 0.12 | 0.12 | 94 | 1007.7 |
| 20260506034501 | 59 | 0 | 0.0 | 0.9 | 0.02 | 0.12 | 0.12 | 94 | 1007.7 |
| 20260506033900 | 59 | 0 | 0.0 | 0.0 | 0.02 | 0.12 | 0.12 | 94 | 1007.8 |
| 20260506033601 | 59 | 0 | 0.0 | 0.0 | 0.02 | 0.12 | 0.12 | 94 | 1007.8 |
| 20260506033301 | 59 | 0 | 0.0 | 0.0 | 0.02 | 0.12 | 0.12 | 94 | 1007.8 |
| 20260506033002 | 59 | 0 | 0.0 | 0.0 | 0.02 | 0.12 | 0.12 | 94 | 1007.8 |
| 20260506032701 | 59 | 0 | 0.0 | 0.0 | 0.03 | 0.12 | 0.12 | 94 | 1007.8 |
| 20260506032401 | 59 | 0 | 0.0 | 0.0 | 0.03 | 0.12 | 0.12 | 94 | 1007.8 |
| 20260506032101 | 59 | 0 | 0.0 | 0.0 | 0.02 | 0.11 | 0.11 | 94 | 1007.8 |
| 20260506031801 | 59 | 0 | 0.0 | 0.0 | 0.02 | 0.11 | 0.11 | 94 | 1007.9 |
| 20260506031501 | 59 | 0 | 0.0 | 0.0 | 0.02 | 0.11 | 0.11 | 94 | 1007.8 |
| 20260506031201 | 59 | 0 | 0.0 | 0.0 | 0.02 | 0.11 | 0.11 | 94 | 1007.8 |
| 20260506030901 | 59 | 0 | 0.0 | 0.0 | 0.02 | 0.11 | 0.11 | 94 | 1007.9 |
| 20260506030301 | 59 | 0 | 0.0 | 0.9 | 0.02 | 0.10 | 0.10 | 94 | 1007.9 |
| 20260506030002 | 59 | 0 | 0.0 | 1.7 | 0.02 | 0.10 | 0.10 | 94 | 1007.8 |
| 20260506025701 | 59 | 0 | 0.0 | 2.6 | 0.02 | 0.10 | 0.10 | 94 | 1007.9 |
| 20260506025401 | 59 | 0 | 0.0 | 2.6 | 0.02 | 0.10 | 0.10 | 93 | 1007.9 |
| 20260506025101 | 59 | 0 | 0.0 | 2.6 | 0.02 | 0.10 | 0.10 | 93 | 1007.9 |
| 20260506024801 | 59 | 0 | 0.0 | 1.7 | 0.02 | 0.10 | 0.10 | 93 | 1007.9 |
| 20260506024201 | 59 | 0 | 0.0 | 2.6 | 0.02 | 0.10 | 0.10 | 93 | 1008.0 |
| 20260506023901 | 59 | 0 | 0.0 | 2.6 | 0.02 | 0.10 | 0.10 | 93 | 1008.1 |
| 20260506023601 | 59 | 0 | 0.0 | 0.0 | 0.02 | 0.10 | 0.10 | 93 | 1008.2 |
| 20260506023302 | 59 | 0 | 0.0 | 0.0 | 0.02 | 0.10 | 0.10 | 93 | 1008.2 |
| 20260506023002 | 59 | 0 | 0.0 | 0.0 | 0.01 | 0.09 | 0.09 | 93 | 1008.3 |
| 20260506022701 | 59 | 0 | 0.0 | 0.0 | 0.01 | 0.09 | 0.09 | 93 | 1008.4 |
| 20260506022401 | 59 | 0 | 0.0 | 0.0 | 0.01 | 0.09 | 0.09 | 93 | 1008.2 |
| 20260506022101 | 59 | 0 | 0.0 | 0.0 | 0.01 | 0.09 | 0.09 | 93 | 1008.2 |
| 20260506021801 | 59 | 0 | 0.0 | 0.0 | 0.01 | 0.09 | 0.09 | 93 | 1008.2 |
| 20260506021201 | 59 | 0 | 0.0 | 0.9 | 0.01 | 0.09 | 0.09 | 93 | 1008.1 |
| 20260506020601 | 59 | 273 | 0.9 | 1.7 | 0.02 | 0.09 | 0.09 | 93 | 1008.1 |
| 20260506020002 | 60 | 269 | 0.9 | 1.7 | 0.01 | 0.08 | 0.08 | 92 | 1008.1 |
| 20260506015702 | 60 | 0 | 0.0 | 1.7 | 0.01 | 0.08 | 0.08 | 92 | 1008.1 |
| 20260506015401 | 59 | 0 | 0.0 | 0.0 | 0.02 | 0.08 | 0.08 | 92 | 1008.0 |
| 20260506015102 | 60 | 0 | 0.0 | 0.0 | 0.02 | 0.08 | 0.08 | 92 | 1007.9 |
| 20260506014801 | 60 | 0 | 0.0 | 0.0 | 0.02 | 0.08 | 0.08 | 92 | 1007.7 |
| 20260506014502 | 60 | 0 | 0.0 | 0.9 | 0.02 | 0.08 | 0.08 | 92 | 1007.7 |
| 20260506014202 | 60 | 0 | 0.0 | 1.7 | 0.02 | 0.08 | 0.08 | 92 | 1007.7 |
| 20260506013901 | 60 | 0 | 0.0 | 1.7 | 0.03 | 0.08 | 0.08 | 92 | 1007.7 |
| 20260506013301 | 60 | 0 | 0.0 | 1.7 | 0.03 | 0.08 | 0.08 | 92 | 1007.7 |
| 20260506013002 | 60 | 0 | 0.0 | 1.7 | 0.04 | 0.08 | 0.08 | 92 | 1007.7 |
| 20260506012702 | 60 | 243 | 0.9 | 2.6 | 0.04 | 0.08 | 0.08 | 91 | 1007.7 |
| 20260506012401 | 60 | 0 | 0.0 | 2.6 | 0.05 | 0.08 | 0.08 | 91 | 1007.7 |
| 20260506012101 | 60 | 0 | 0.0 | 2.6 | 0.05 | 0.08 | 0.08 | 91 | 1007.6 |
| 20260506011802 | 60 | 0 | 0.0 | 2.6 | 0.06 | 0.08 | 0.08 | 91 | 1007.6 |
| 20260506011502 | 60 | 0 | 0.0 | 0.0 | 0.06 | 0.08 | 0.08 | 91 | 1007.6 |
| 20260506010902 | 60 | 270 | 0.9 | 2.6 | 0.06 | 0.08 | 0.08 | 91 | 1007.7 |
| 20260506010602 | 60 | 276 | 0.9 | 3.5 | 0.05 | 0.07 | 0.07 | 91 | 1007.8 |
| 20260506010302 | 60 | 285 | 1.7 | 3.5 | 0.05 | 0.07 | 0.07 | 91 | 1007.7 |
| 20260506010002 | 60 | 284 | 1.7 | 7.0 | 0.05 | 0.07 | 0.07 | 91 | 1007.7 |
| 20260506005702 | 60 | 283 | 2.6 | 7.0 | 0.06 | 0.07 | 0.07 | 90 | 1007.7 |
| 20260506005401 | 60 | 275 | 2.6 | 7.0 | 0.06 | 0.06 | 0.06 | 90 | 1007.7 |
| 20260506005101 | 60 | 271 | 1.7 | 7.0 | 0.06 | 0.06 | 0.06 | 90 | 1008.0 |
| 20260506004801 | 60 | 268 | 2.6 | 6.1 | 0.06 | 0.06 | 0.06 | 90 | 1008.1 |
| 20260506004502 | 60 | 268 | 3.5 | 6.1 | 0.06 | 0.06 | 0.06 | 90 | 1008.1 |
| 20260506004202 | 60 | 264 | 3.5 | 8.7 | 0.06 | 0.06 | 0.06 | 90 | 1008.2 |
| 20260506003902 | 60 | 261 | 4.3 | 8.7 | 0.05 | 0.05 | 0.05 | 89 | 1008.1 |
| 20260506003602 | 60 | 258 | 4.3 | 9.6 | 0.05 | 0.05 | 0.05 | 89 | 1008.0 |
| 20260506003302 | 60 | 263 | 4.3 | 9.6 | 0.05 | 0.05 | 0.05 | 89 | 1008.1 |
| 20260506003002 | 60 | 270 | 3.5 | 9.6 | 0.04 | 0.04 | 0.04 | 89 | 1008.1 |
| 20260506002702 | 60 | 277 | 3.5 | 7.0 | 0.04 | 0.04 | 0.04 | 88 | 1007.9 |
| 20260506002101 | 60 | 279 | 3.5 | 7.8 | 0.03 | 0.03 | 0.03 | 88 | 1007.7 |
| 20260506001801 | 60 | 284 | 3.5 | 7.8 | 0.02 | 0.02 | 0.02 | 87 | 1007.7 |
| 20260506001501 | 60 | 288 | 3.5 | 9.6 | 0.02 | 0.02 | 0.02 | 87 | 1007.6 |
| 20260506001201 | 60 | 287 | 4.3 | 9.6 | 0.02 | 0.02 | 0.02 | 86 | 1007.6 |
| 20260506000901 | 61 | 282 | 5.2 | 11.3 | 0.02 | 0.02 | 0.02 | 85 | 1007.6 |
| 20260506000602 | 61 | 281 | 6.1 | 11.3 | 0.02 | 0.02 | 0.02 | 85 | 1007.7 |
| 20260506000302 | 61 | 283 | 7.0 | 13.0 | 0.02 | 0.02 | 0.02 | 83 | 1007.7 |
| 20260505235402 | 64 | 284 | 10.4 | 20.0 | 0.00 | 0.00 | 0.00 | 76 | 1007.7 |
| 20260505234502 | 69 | 279 | 7.0 | 21.7 | 0.00 | 0.00 | 0.00 | 63 | 1007.6 |
| 20260505234202 | 70 | 270 | 5.2 | 11.3 | 0.00 | 0.00 | 0.00 | 60 | 1007.3 |
| 20260505233902 | 70 | 263 | 4.3 | 8.7 | 0.00 | 0.00 | 0.00 | 59 | 1007.0 |
| 20260505233601 | 70 | 259 | 4.3 | 11.3 | 0.00 | 0.00 | 0.00 | 58 | 1007.0 |
| 20260505233301 | 70 | 258 | 4.3 | 11.3 | 0.00 | 0.00 | 0.00 | 58 | 1007.0 |
| 20260505232703 | 70 | 260 | 3.5 | 9.6 | 0.00 | 0.00 | 0.00 | 58 | 1006.8 |
| 20260505232401 | 70 | 261 | 3.5 | 9.6 | 0.00 | 0.00 | 0.00 | 58 | 1006.8 |
| 20260505232101 | 70 | 251 | 3.5 | 9.6 | 0.00 | 0.00 | 0.00 | 58 | 1006.8 |
| 20260505231802 | 70 | 256 | 3.5 | 7.8 | 0.00 | 0.00 | 0.00 | 58 | 1006.7 |
| 20260505231202 | 70 | 268 | 4.3 | 9.6 | 0.00 | 0.00 | 0.00 | 58 | 1006.7 |
| 20260505230902 | 70 | 265 | 4.3 | 11.3 | 0.00 | 0.00 | 0.00 | 58 | 1006.7 |
| 20260505230601 | 71 | 253 | 4.3 | 11.3 | 0.00 | 0.00 | 0.00 | 58 | 1006.7 |
| 20260505230301 | 71 | 241 | 3.5 | 11.3 | 0.00 | 0.00 | 0.00 | 58 | 1006.8 |
| 20260505225402 | 71 | 249 | 4.3 | 11.3 | 0.00 | 0.00 | 0.00 | 57 | 1006.7 |
| 20260505225102 | 70 | 249 | 4.3 | 11.3 | 0.00 | 0.00 | 0.00 | 58 | 1006.7 |
| 20260505224802 | 70 | 256 | 3.5 | 8.7 | 0.00 | 0.00 | 0.00 | 58 | 1006.9 |
| 20260505224502 | 70 | 258 | 3.5 | 8.7 | 0.00 | 0.00 | 0.00 | 58 | 1006.9 |
| 20260505223601 | 71 | 255 | 3.5 | 7.8 | 0.00 | 0.00 | 0.00 | 59 | 1006.9 |
| 20260505223002 | 71 | 263 | 3.5 | 7.8 | 0.00 | 0.00 | 0.00 | 58 | 1006.9 |
| 20260505222702 | 71 | 268 | 3.5 | 7.8 | 0.00 | 0.00 | 0.00 | 57 | 1006.9 |
| 20260505222401 | 71 | 261 | 2.6 | 7.0 | 0.00 | 0.00 | 0.00 | 57 | 1006.8 |
| 20260505222101 | 71 | 249 | 2.6 | 7.8 | 0.00 | 0.00 | 0.00 | 57 | 1006.9 |
| 20260505221802 | 71 | 237 | 2.6 | 7.8 | 0.00 | 0.00 | 0.00 | 58 | 1006.8 |
| 20260505221501 | 71 | 243 | 3.5 | 7.8 | 0.00 | 0.00 | 0.00 | 57 | 1006.9 |
| 20260505221202 | 71 | 252 | 2.6 | 7.8 | 0.00 | 0.00 | 0.00 | 57 | 1007.0 |
| 20260505220302 | 71 | 238 | 4.3 | 8.7 | 0.00 | 0.00 | 0.00 | 57 | 1006.9 |
| 20260505220002 | 71 | 246 | 4.3 | 9.6 | 0.00 | 0.00 | 0.00 | 56 | 1006.9 |
| 20260505215702 | 71 | 247 | 5.2 | 9.6 | 0.00 | 0.00 | 0.00 | 56 | 1006.9 |
| 20260505215402 | 71 | 259 | 5.2 | 10.4 | 0.00 | 0.00 | 0.00 | 56 | 1007.0 |
| 20260505215102 | 71 | 258 | 5.2 | 12.2 | 0.00 | 0.00 | 0.00 | 56 | 1007.0 |
| 20260505214802 | 71 | 262 | 5.2 | 12.2 | 0.00 | 0.00 | 0.00 | 56 | 1007.0 |
| 20260505214501 | 71 | 251 | 5.2 | 12.2 | 0.00 | 0.00 | 0.00 | 56 | 1007.0 |
| 20260505214202 | 71 | 250 | 5.2 | 12.2 | 0.00 | 0.00 | 0.00 | 56 | 1007.1 |
| 20260505213902 | 71 | 256 | 5.2 | 10.4 | 0.00 | 0.00 | 0.00 | 56 | 1007.0 |
| 20260505213601 | 71 | 261 | 4.3 | 10.4 | 0.00 | 0.00 | 0.00 | 57 | 1006.9 |
| 20260505213302 | 71 | 261 | 5.2 | 11.3 | 0.00 | 0.00 | 0.00 | 56 | 1007.0 |
| 20260505213002 | 71 | 263 | 5.2 | 12.2 | 0.00 | 0.00 | 0.00 | 56 | 1007.1 |
| 20260505212701 | 71 | 256 | 6.1 | 13.0 | 0.00 | 0.00 | 0.00 | 56 | 1007.0 |
| 20260505212102 | 71 | 257 | 6.1 | 13.0 | 0.00 | 0.00 | 0.00 | 57 | 1007.0 |
| 20260505211802 | 71 | 262 | 5.2 | 9.6 | 0.00 | 0.00 | 0.00 | 56 | 1007.0 |
| 20260505211502 | 71 | 261 | 5.2 | 12.2 | 0.00 | 0.00 | 0.00 | 56 | 1007.1 |
| 20260505211202 | 71 | 257 | 6.1 | 12.2 | 0.00 | 0.00 | 0.00 | 57 | 1007.1 |
| 20260505210902 | 71 | 255 | 6.1 | 15.6 | 0.00 | 0.00 | 0.00 | 56 | 1007.2 |
| 20260505210602 | 71 | 255 | 6.1 | 15.6 | 0.00 | 0.00 | 0.00 | 57 | 1007.2 |
| 20260505210302 | 71 | 252 | 5.2 | 15.6 | 0.00 | 0.00 | 0.00 | 56 | 1007.2 |
| 20260505210002 | 71 | 253 | 6.1 | 15.6 | 0.00 | 0.00 | 0.00 | 56 | 1007.3 |
| 20260505205102 | 71 | 247 | 7.0 | 15.6 | 0.00 | 0.00 | 0.00 | 56 | 1007.3 |
| 20260505204802 | 71 | 258 | 6.1 | 11.3 | 0.00 | 0.00 | 0.00 | 56 | 1007.3 |
| 20260505204502 | 71 | 257 | 5.2 | 12.2 | 0.00 | 0.00 | 0.00 | 57 | 1007.4 |
| 20260505204202 | 71 | 254 | 5.2 | 12.2 | 0.00 | 0.00 | 0.00 | 57 | 1007.4 |
| 20260505203902 | 71 | 251 | 5.2 | 14.8 | 0.00 | 0.00 | 0.00 | 56 | 1007.3 |
| 20260505203602 | 71 | 252 | 7.0 | 17.4 | 0.00 | 0.00 | 0.00 | 57 | 1007.4 |
| 20260505203302 | 71 | 257 | 7.0 | 17.4 | 0.00 | 0.00 | 0.00 | 56 | 1007.4 |
| 20260505203002 | 71 | 255 | 6.1 | 17.4 | 0.00 | 0.00 | 0.00 | 56 | 1007.5 |
| 20260505202702 | 71 | 257 | 6.1 | 16.5 | 0.00 | 0.00 | 0.00 | 57 | 1007.4 |
| 20260505202102 | 71 | 260 | 7.8 | 16.5 | 0.00 | 0.00 | 0.00 | 57 | 1007.4 |
| 20260505201802 | 71 | 256 | 7.0 | 17.4 | 0.00 | 0.00 | 0.00 | 56 | 1007.4 |
| 20260505201502 | 71 | 250 | 6.1 | 17.4 | 0.00 | 0.00 | 0.00 | 58 | 1007.5 |
| 20260505201202 | 71 | 249 | 6.1 | 17.4 | 0.00 | 0.00 | 0.00 | 57 | 1007.5 |
| 20260505200902 | 71 | 254 | 4.3 | 12.2 | 0.00 | 0.00 | 0.00 | 58 | 1007.5 |
| 20260505200602 | 71 | 259 | 4.3 | 8.7 | 0.00 | 0.00 | 0.00 | 58 | 1007.5 |
| 20260505200302 | 70 | 262 | 4.3 | 8.7 | 0.00 | 0.00 | 0.00 | 60 | 1007.6 |
| 20260505200002 | 70 | 257 | 4.3 | 8.7 | 0.00 | 0.00 | 0.00 | 59 | 1007.7 |
| 20260505195702 | 70 | 250 | 4.3 | 8.7 | 0.00 | 0.00 | 0.00 | 59 | 1007.7 |
| 20260505195402 | 70 | 241 | 5.2 | 10.4 | 0.00 | 0.00 | 0.00 | 59 | 1007.8 |
| 20260505195102 | 70 | 251 | 5.2 | 10.4 | 0.00 | 0.00 | 0.00 | 60 | 1007.8 |
| 20260505194802 | 70 | 253 | 6.1 | 16.5 | 0.00 | 0.00 | 0.00 | 60 | 1007.8 |
| 20260505194502 | 70 | 253 | 6.1 | 16.5 | 0.00 | 0.00 | 0.00 | 60 | 1007.8 |
| 20260505194202 | 70 | 252 | 6.1 | 16.5 | 0.00 | 0.00 | 0.00 | 60 | 1007.8 |
| 20260505193902 | 70 | 254 | 5.2 | 13.0 | 0.00 | 0.00 | 0.00 | 61 | 1007.8 |
| 20260505193603 | 70 | 269 | 4.3 | 12.2 | 0.00 | 0.00 | 0.00 | 61 | 1007.7 |
| 20260505193302 | 70 | 268 | 4.3 | 8.7 | 0.00 | 0.00 | 0.00 | 61 | 1007.7 |
| 20260505193002 | 70 | 270 | 3.5 | 8.7 | 0.00 | 0.00 | 0.00 | 61 | 1007.7 |
| 20260505192702 | 70 | 242 | 3.5 | 7.8 | 0.00 | 0.00 | 0.00 | 61 | 1007.7 |
| 20260505192402 | 70 | 238 | 3.5 | 7.8 | 0.00 | 0.00 | 0.00 | 60 | 1007.5 |
| 20260505191802 | 70 | 266 | 4.3 | 9.6 | 0.00 | 0.00 | 0.00 | 59 | 1007.6 |
| 20260505191502 | 70 | 263 | 4.3 | 9.6 | 0.00 | 0.00 | 0.00 | 59 | 1007.6 |
| 20260505191202 | 70 | 262 | 4.3 | 8.7 | 0.00 | 0.00 | 0.00 | 60 | 1007.7 |
| 20260505190902 | 70 | 260 | 4.3 | 9.6 | 0.00 | 0.00 | 0.00 | 59 | 1007.8 |
| 20260505190602 | 70 | 264 | 4.3 | 12.2 | 0.00 | 0.00 | 0.00 | 59 | 1007.7 |
| 20260505190303 | 70 | 248 | 4.3 | 12.2 | 0.00 | 0.00 | 0.00 | 57 | 1007.9 |
| 20260505190003 | 70 | 252 | 4.3 | 12.2 | 0.00 | 0.00 | 0.00 | 57 | 1007.9 |
| 20260505185703 | 70 | 248 | 4.3 | 9.6 | 0.00 | 0.00 | 0.00 | 56 | 1007.8 |
| 20260505185402 | 71 | 257 | 4.3 | 10.4 | 0.00 | 0.00 | 0.00 | 57 | 1007.9 |
| 20260505184802 | 71 | 256 | 4.3 | 10.4 | 0.00 | 0.00 | 0.00 | 55 | 1008.2 |
| 20260505184502 | 71 | 254 | 4.3 | 9.6 | 0.00 | 0.00 | 0.00 | 55 | 1008.1 |
| 20260505184203 | 71 | 253 | 4.3 | 9.6 | 0.00 | 0.00 | 0.00 | 55 | 1008.1 |
| 20260505183302 | 72 | 259 | 5.2 | 11.3 | 0.00 | 0.00 | 0.00 | 54 | 1008.1 |
| 20260505182703 | 72 | 260 | 6.1 | 11.3 | 0.00 | 0.00 | 0.00 | 53 | 1008.1 |
| 20260505182402 | 71 | 251 | 6.1 | 11.3 | 0.00 | 0.00 | 0.00 | 54 | 1008.2 |
| 20260505181802 | 71 | 251 | 7.8 | 16.5 | 0.00 | 0.00 | 0.00 | 54 | 1008.2 |
| 20260505181503 | 72 | 250 | 7.8 | 16.5 | 0.00 | 0.00 | 0.00 | 53 | 1008.2 |
| 20260505180903 | 72 | 256 | 7.8 | 14.8 | 0.00 | 0.00 | 0.00 | 53 | 1008.1 |
| 20260505180602 | 72 | 262 | 8.7 | 14.8 | 0.00 | 0.00 | 0.00 | 54 | 1008.1 |
| 20260505180303 | 72 | 270 | 9.6 | 18.2 | 0.00 | 0.00 | 0.00 | 53 | 1008.1 |